Hourly Weather Roundup
Issued by NWS Central Illinois

Home | Current Version | Previous Version | Text Only | Print | Product List | Glossary On
Versions: 1 2 3 4 5 6 7 8 9 10 11 12 13 14 15 16 17 18 19 20 21 22 23 24 25 26 27 28 29 30 31 32 33 34 35 36 37 38 39 40 41 42 43 44 45 46 47 48 49 50
521
NZUS43 KILX 081610
HWRILX

AREA WEATHER ROUNDUP
NATIONAL WEATHER SERVICE, LINCOLN IL
1000 AM CST MON FEB 08 2016


CITY           SKY/WX    TMP DP  RH WIND       PRES   REMARKS
BLOOMINGTON    FLURRIES  22  18  85 W20       29.75R WCI   7
CHAMPAIGN      CLOUDY    26  20  77 NW25G33   29.74R WCI  11
DANVILLE       LGT SNOW  30  28  94 NW12      29.67S WCI  20
DECATUR        LGT SNOW  24  19  81 NW18G25   29.77R VSB 3/4 WCI  10
EFFINGHAM      FLURRIES  30  26  84 NW20G26   29.79R WCI  17
FLORA          LGT SNOW  33  31  90 W20       29.77S WCI  22
GALESBURG      LGT SNOW  19  15  83 W20       29.80R WCI   4
JACKSONVILLE   FLURRIES  25  20  79 NW16G23   29.83R WCI  13
LACON          CLOUDY    22  13  69 NW16G22   29.77R WCI   8
LAWRENCEVILLE  MIX PCPN  34  32  92 W20       29.74S WCI  23
LITCHFIELD     LGT SNOW  25  22  86 NW15G22   29.82R WCI  13
$$


CITY           SKY/WX    TMP DP  RH WIND       PRES   REMARKS
LINCOLN        LGT SNOW  25  20  79 NW10G18   29.79R WCI  15
MACOMB         LGT SNOW  20  16  84 NW24      29.85R WCI   3
MATTOON        CLOUDY    27  19  72 NW23G31   29.74R WCI  12
MT CARMEL AP   CLOUDY    34  30  86 W18       29.74S WCI  23
OLNEY-NOBLE AP DRIZZLE   32  32 100 W17       29.76R WCI  21
PARIS          CLOUDY    31  30  95 NW22G30   29.72R WCI  18
PEORIA         LGT SNOW  22  13  68 NW13G22   29.79R WCI  10
PONTIAC        LGT SNOW  26  23  87 NW20      29.73S WCI  13
RANTOUL        CLOUDY    29  24  80 W17       29.72R WCI  17
ROBINSON       SNOW      32  31  97 W14G20    29.74R VSB 1/2 WCI  22
SPRINGFIELD    FLURRIES  25  18  74 NW17      29.81R WCI  12
TAYLORVILLE    CLOUDY    27  19  74 NW17      29.81R WCI  14
$$

...REGIONAL REPORTS...


CITY           SKY/WX    TMP DP  RH WIND       PRES   REMARKS
CHICAGO O`HARE CLOUDY    29  23  78 W10       29.65R WCI  20
KANKAKEE       CLOUDY    29  22  75 W10       29.70R WCI  20
MOLINE         LGT SNOW  21  13  71 NW16G28   29.80R WCI   7
MOUNT STERLING LGT SNOW  21  16  83 W22G28    29.84R WCI   4
MOUNT VERNON   CLOUDY    32  18  55 W9G16     29.81R WCI  24
PITTSFIELD     CLOUDY    22  14  69 NW21G29   29.87R HAZE    WCI   7
QUINCY         LGT SNOW  20  13  74 NW23      29.87R WCI   3
ROCKFORD       LGT SNOW  24  18  77 NW14      29.71S WCI  12
$$


CITY           SKY/WX    TMP DP  RH WIND       PRES   REMARKS
BURLINGTON     LGT SNOW  19  12  74 NW14G26   29.84R WCI   6
CEDAR RAPIDS   FLURRIES  17  11  77 NW21G32   29.82R WCI   0
DES MOINES     LGT SNOW  18  10  71 N28G38    29.96R VSB 3/4 WCI  -1
KIRKSVILLE     LGT SNOW  20  11  68 NW20G31   29.92R WCI   4
OTTUMWA        LGT SNOW  16  11  80 NW28G33   29.90R WCI  -4
ST LOUIS       CLOUDY    29  17  61 NW17G26   29.87R WCI  17
$$


CITY           SKY/WX    TMP DP  RH WIND       PRES   REMARKS
TERRE HAUTE    CLOUDY    34  31  88 NW12      29.70S WCI  25
EVANSVILLE     CLOUDY    39  30  70 W12G24    29.77S WCI  32
INDIANAPOLIS   FLURRIES  36  30  79 W8        29.66S WCI  30
LAFAYETTE      CLOUDY    31  29  92 NW14      29.67S FOG     WCI  21
MADISON        FLURRIES  21  14  74 NW13      29.69R WCI   9
MILWAUKEE      LGT SNOW  29  23  78 NW13      29.64R WCI  19
$$






USA.gov is the U.S. government's official web portal to all federal, state and local government web resources and services.